Meath Environmental Platform

Observations for Trim Market St

Time AQI Temp °C Hum % Pres Pa CO μg/m³ H₂S μg/m³ NO μg/m³ NO₂ μg/m³ O₃ μg/m³ SO₂ μg/m³ PM1 μg/m³ PM2.5 μg/m³ PM10 μg/m³
Thursday 13 August 2026
16:26 2 40.9 27 67,084 0 0 0 13.81 56.49 6.14 0 2.89 3.18
16:25 2 40.8 28 67,086 0 2.71 0 14.05 72.74 6.29 0 3.96 4.35
16:24 2 40.6 28 67,078 0 0 0 14.46 66.4 5.35 0 3.4 3.75
16:23 2 40.5 28 67,070 0 0 0 14.82 64.91 5.75 0.71 3.4 3.75
16:22 2 40.3 28 67,035 0 13.08 0 17.62 69.85 5.96 0 3.39 3.73
16:20 2 40.1 28 67,047 0 23.29 0 33.41 66.93 4.55 0 2.85 3.13
16:19 2 40 28 67,041 0 13.28 0 21.1 73.89 4.87 0 3.39 3.73
16:18 2 39.9 28 67,031 0 9.98 0 15.32 71.7 5.82 0 3.4 3.74
16:09 2 39.5 27 67,096 0 19.66 0 13.64 81.87 8.75 0 3.43 3.77
16:08 2 39.7 27 67,124 0 13.51 0 13.94 78.22 7.93 0.71 3.98 4.38
16:05 2 40.4 27 67,149 0 4.53 0 15.41 70.66 7.12 0.71 3.45 3.8
16:04 2 40.5 27 67,181 0 0 0 13.73 77 7.5 0 3.46 3.8
15:58 2 41.5 26 67,304 0 0 0 13.96 87.17 8.46 0 3.49 3.84
15:57 2 41.7 25 67,296 0 0 0 13.96 75.51 8.6 0 2.96 3.26
15:56 2 41.9 25 67,308 0 0 0 14.18 73.84 8.17 0.71 3.52 3.87
15:55 2 42.1 25 67,325 0 0 0 14.17 77.35 8.2 0 3.52 3.88
15:54 2 42.2 25 67,314 0 0 0 14.15 76.19 8.75 0 2.97 3.27
15:53 2 42.3 25 67,325 0 0 0 14.37 79.58 8.22 0 3.52 3.87
15:52 2 42.4 25 67,316 0 0 0 14.24 71.08 8.12 0.71 4.07 4.48
15:51 2 42.5 25 67,324 0.07 0 0 14.28 79 8.18 0 3.51 3.86